Weather History for Sanford, NC

Change the Weather History Date:

Monday, February 17, 2014

  Actual Average (KRDU) Record (KRDU)
Temperature  
Mean Temperature 34 °F 45 °F  
Max Temperature 46 °F 56 °F 78 °F (1927)
Min Temperature 24 °F 34 °F 7 °F (1958)
Degree Days  
Heating Degree Days 30 20  
Month to date heating degree days 367  
Since 1 July heating degree days 2364  
Cooling Degree Days 0 0  
Month to date cooling degree days 0  
Year to date cooling degree days 0  
Moisture  
Dew Point 24 °F    
Average Humidity 68    
Maximum Humidity 98    
Minimum Humidity 37    
Precipitation  
Precipitation 0.00 in 0.12 in 1.55 in (1998)
Month to date precipitation 1.90  
Year to date precipitation 5.40  
Snow  
Snow 0.00 in 0.10 in 5.00 in (1902)
Month to date snowfall 1.3  
Since 1 July snowfall 4.9  
Snow Depth -    
Sea Level Pressure  
Sea Level Pressure 30.28 in    
Wind  
Wind Speed 2 mph (East)    
Max Wind Speed 9 mph    
Max Gust Speed -    
Visibility 10 miles    
Events      
T = Trace of Precipitation, MM = Missing Value Source: NWS Daily Summary

Daily Weather History Graph

Daily Weather History Graph

Search for Another Location

Airport:

Trip Planner

Search our weather history database for the weather conditions in past years. The results will help you decide how hot, cold, wet, or windy it might be!

Date:

Astronomy

Feb. 17, 2014 Rise Set
Actual Time 7:00 AM EST 6:00 PM EST
Civil Twilight 6:34 AM EST 6:26 PM EST
Nautical Twilight 6:05 AM EST 6:56 PM EST
Astronomical Twilight 5:35 AM EST 7:25 PM EST
Moon 8:45 PM EST (2/17) 8:07 AM EST (2/17)
Length of Visible Light 11h 51m
Length of Day
10h 59m
Waning Gibbous, 93% of the Moon is Illuminated
Feb 17
Waning Gibbous
Feb 22
Last Quarter
Mar 1
New
Mar 8
First Quarter
Mar 16
Full

Hourly Weather History & Observations

Time (EST) Temp. Windchill Dew Point Humidity Pressure Visibility Wind Dir Wind Speed Gust Speed Precip Events Conditions
12:15 AM 28.9 °F - 27.5 °F 94% 30.17 in 10.0 mi Calm Calm - N/A   Unknown
12:35 AM 28.4 °F - 27.0 °F 94% 30.18 in 10.0 mi Calm Calm - N/A   Unknown
12:55 AM 28.8 °F - 27.1 °F 94% 30.19 in 10.0 mi Calm Calm - N/A   Unknown
1:15 AM 28.9 °F - 27.7 °F 95% 30.19 in 10.0 mi Calm Calm - N/A   Unknown
1:35 AM 28.2 °F - 27.1 °F 96% 30.20 in 10.0 mi Calm Calm - N/A   Unknown
1:55 AM 28.2 °F - 27.5 °F 97% 30.21 in 10.0 mi Calm Calm - N/A   Unknown
2:15 AM 27.7 °F - 26.6 °F 96% 30.22 in 10.0 mi Calm Calm - N/A   Unknown
2:35 AM 27.9 °F - 27.1 °F 97% 30.23 in 10.0 mi Calm Calm - N/A   Unknown
2:55 AM 27.9 °F - 27.0 °F 96% 30.23 in 10.0 mi Calm Calm - N/A   Unknown
3:15 AM 27.3 °F - 26.4 °F 96% 30.23 in 10.0 mi Calm Calm - N/A   Unknown
3:35 AM 27.1 °F - 26.2 °F 96% 30.24 in 10.0 mi Calm Calm - N/A   Unknown
3:55 AM 26.6 °F - 25.7 °F 96% 30.25 in 10.0 mi Calm Calm - N/A   Unknown
4:15 AM 27.1 °F - 26.1 °F 96% 30.26 in 10.0 mi Calm Calm - N/A   Unknown
4:35 AM 26.6 °F - 25.7 °F 96% 30.26 in 10.0 mi Calm Calm - N/A   Unknown
4:55 AM 26.1 °F - 25.2 °F 96% 30.27 in 10.0 mi Calm Calm - N/A   Unknown
5:15 AM 26.6 °F - 25.7 °F 96% 30.28 in 10.0 mi Calm Calm - N/A   Unknown
5:35 AM 25.5 °F - 24.6 °F 96% 30.29 in 10.0 mi Calm Calm - N/A   Unknown
5:55 AM 25.3 °F - 24.8 °F 98% 30.30 in 10.0 mi Calm Calm - N/A   Unknown
6:15 AM 25.7 °F - 25.0 °F 97% 30.30 in 10.0 mi Calm Calm - N/A   Unknown
6:35 AM 25.2 °F - 24.1 °F 96% 30.31 in 10.0 mi Calm Calm - N/A   Unknown
6:55 AM 24.8 °F - 23.9 °F 96% 30.31 in 10.0 mi Calm Calm - N/A   Unknown
7:15 AM 24.6 °F 20.3 °F 23.4 °F 95% 30.32 in 10.0 mi North 3.5 mph - N/A   Unknown
7:35 AM 26.2 °F - 23.5 °F 90% 30.33 in 10.0 mi Calm Calm - N/A   Unknown
7:55 AM 28.4 °F 23.3 °F 25.7 °F 90% 30.34 in 10.0 mi NNE 4.6 mph - N/A   Unknown
8:15 AM 31.6 °F 28.3 °F 26.4 °F 81% 30.36 in 10.0 mi NE 3.5 mph - N/A   Unknown
8:35 AM 32.5 °F 29.3 °F 25.9 °F 76% 30.37 in 10.0 mi NE 3.5 mph - N/A   Unknown
8:55 AM 34.0 °F 28.8 °F 24.6 °F 69% 30.38 in 10.0 mi NE 5.8 mph - N/A   Unknown
9:15 AM 34.9 °F 29.9 °F 23.7 °F 64% 30.39 in 10.0 mi ENE 5.8 mph - N/A   Unknown
9:35 AM 36.0 °F 32.1 °F 23.5 °F 61% 30.39 in 10.0 mi NE 4.6 mph - N/A   Unknown
9:55 AM 37.2 °F 31.2 °F 22.8 °F 56% 30.38 in 10.0 mi NE 8.1 mph - N/A   Unknown
10:15 AM 37.8 °F 31.3 °F 22.1 °F 53% 30.37 in 10.0 mi ENE 9.2 mph - N/A   Unknown
10:35 AM 38.3 °F 32.5 °F 21.6 °F 51% 30.38 in 10.0 mi NE 8.1 mph - N/A   Unknown
10:55 AM 39.4 °F 34.5 °F 21.7 °F 49% 30.38 in 10.0 mi ENE 6.9 mph - N/A   Unknown
11:15 AM 39.6 °F 36.3 °F 21.9 °F 49% 30.39 in 10.0 mi East 4.6 mph - N/A   Unknown
11:35 AM 40.3 °F 35.5 °F 21.6 °F 47% 30.38 in 10.0 mi ENE 6.9 mph - N/A   Unknown
11:55 AM 41.0 °F 36.4 °F 21.7 °F 46% 30.37 in 10.0 mi NNE 6.9 mph - N/A   Unknown
12:15 PM 41.2 °F 38.2 °F 20.8 °F 44% 30.36 in 10.0 mi NE 4.6 mph - N/A   Unknown
12:35 PM 41.4 °F 39.4 °F 20.5 °F 43% 30.35 in 10.0 mi East 3.5 mph - N/A   Unknown
12:55 PM 41.9 °F 38.2 °F 20.5 °F 42% 30.34 in 10.0 mi East 5.8 mph - N/A   Unknown
1:15 PM 42.8 °F 38.6 °F 20.7 °F 41% 30.32 in 10.0 mi SE 6.9 mph - N/A   Unknown
1:35 PM 43.9 °F 41.3 °F 21.9 °F 42% 30.32 in 10.0 mi NE 4.6 mph - N/A   Unknown
1:55 PM 44.1 °F 40.8 °F 23.0 °F 43% 30.32 in 10.0 mi SSE 5.8 mph - N/A   Unknown
2:15 PM 43.9 °F 42.3 °F 19.9 °F 38% 30.31 in 10.0 mi ESE 3.5 mph - N/A   Unknown
2:35 PM 44.6 °F - 20.5 °F 38% 30.30 in 10.0 mi Calm Calm - N/A   Unknown
2:55 PM 45.1 °F 41.4 °F 21.0 °F 38% 30.29 in 10.0 mi ENE 6.9 mph - N/A   Unknown
3:15 PM 45.3 °F 41.6 °F 20.5 °F 37% 30.28 in 10.0 mi SE 6.9 mph - N/A   Unknown
3:35 PM 45.5 °F 41.8 °F 20.3 °F 37% 30.28 in 10.0 mi East 6.9 mph - N/A   Unknown
3:55 PM 45.9 °F 42.9 °F 21.4 °F 38% 30.27 in 10.0 mi SE 5.8 mph - N/A   Unknown
4:15 PM 45.3 °F 43.0 °F 20.3 °F 37% 30.27 in 10.0 mi ESE 4.6 mph - N/A   Unknown
4:35 PM 45.0 °F 42.6 °F 20.5 °F 38% 30.27 in 10.0 mi SE 4.6 mph - N/A   Unknown
4:55 PM 45.0 °F 43.5 °F 21.0 °F 39% 30.28 in 10.0 mi SSE 3.5 mph - N/A   Unknown
5:15 PM 44.6 °F 43.1 °F 21.2 °F 39% 30.29 in 10.0 mi ESE 3.5 mph - N/A   Unknown
5:35 PM 43.9 °F 42.3 °F 21.9 °F 42% 30.28 in 10.0 mi East 3.5 mph - N/A   Unknown
5:55 PM 42.8 °F - 22.5 °F 45% 30.27 in 10.0 mi Calm Calm - N/A   Unknown
6:15 PM 41.9 °F - 22.6 °F 46% 30.27 in 10.0 mi Calm Calm - N/A   Unknown
6:35 PM 39.7 °F - 24.6 °F 55% 30.29 in 10.0 mi Calm Calm - N/A   Unknown
6:55 PM 37.0 °F - 27.9 °F 69% 30.29 in 10.0 mi Calm Calm - N/A   Unknown
7:15 PM 35.6 °F - 25.5 °F 67% 30.28 in 10.0 mi Calm Calm - N/A   Unknown
7:35 PM 34.9 °F - 26.4 °F 71% 30.29 in 10.0 mi Calm Calm - N/A   Unknown
7:55 PM 33.4 °F - 26.1 °F 74% 30.28 in 10.0 mi Calm Calm - N/A   Unknown
8:15 PM 32.2 °F - 26.1 °F 78% 30.28 in 10.0 mi Calm Calm - N/A   Unknown
8:35 PM 32.2 °F - 28.0 °F 85% 30.28 in 10.0 mi Calm Calm - N/A   Unknown
8:55 PM 31.8 °F - 27.1 °F 83% 30.27 in 10.0 mi Calm Calm - N/A   Unknown
9:15 PM 31.1 °F - 25.3 °F 79% 30.24 in 10.0 mi Calm Calm - N/A   Unknown
9:35 PM 35.1 °F - 25.0 °F 67% 30.23 in 10.0 mi Calm Calm - N/A   Unknown
9:55 PM 36.9 °F 34.3 °F 24.8 °F 62% 30.22 in 10.0 mi East 3.5 mph - N/A   Unknown
10:15 PM 37.4 °F - 25.3 °F 62% 30.22 in 10.0 mi Calm Calm - N/A   Unknown
10:35 PM 38.1 °F - 25.9 °F 61% 30.22 in 10.0 mi Calm Calm - N/A   Unknown
10:55 PM 38.7 °F - 26.6 °F 62% 30.22 in 10.0 mi Calm Calm - N/A   Unknown
11:15 PM 39.2 °F - 27.0 °F 62% 30.20 in 10.0 mi Calm Calm - N/A   Unknown
11:35 PM 39.2 °F - 27.5 °F 63% 30.19 in 10.0 mi Calm Calm - N/A   Unknown
11:55 PM 39.2 °F - 28.2 °F 65% 30.19 in 10.0 mi Calm Calm - N/A   Unknown